Wind_Speed
11 11 12 13 14 13 13 13 11 9 7 6 5 4 4 3 5 7 8 7 8 8 8 9 9 8 7 7 7 7 7 7 6 7 7 7 7 8 8 9 9 9 9 9 9 9 9 9 9
12 13 14 14 15 15 15 14 13 11 9 7 6 6 5 5 6 8 9 9 9 9 9 10 10 9 9 9 8 8 8 8 8 9 9 9 9 9 10 10 10 10 10 10 10 10 10 10 9
13 14 15 15 16 17 17 15 14 12 10 9 8 7 7 7 9 11 11 11 10 11 11 11 10 10 9 9 9 9 10 10 10 10 10 11 11 11 11 11 11 11 11 11 11 11 10 10 10
14 15 16 17 18 19 18 17 15 13 12 11 9 9 8 10 12 13 13 13 13 13 12 12 11 11 10 10 10 10 11 11 11 12 12 12 12 12 13 13 13 13 13 13 12 12 11 10 10
16 17 18 18 20 20 19 18 17 15 14 13 11 10 10 12 13 14 14 14 14 14 13 13 12 11 11 11 11 11 12 12 13 13 13 13 13 14 14 14 14 14 14 14 14 13 12 12 11
16 18 19 20 22 22 21 20 19 17 15 14 12 12 12 13 14 15 15 14 14 14 14 14 13 12 12 12 12 13 13 14 14 15 15 15 15 15 15 15 16 16 16 16 15 14 14 13 12
18 19 21 23 24 24 22 21 20 18 17 15 14 14 15 16 16 16 16 15 15 15 15 14 13 13 13 13 13 14 14 15 15 16 16 16 16 16 16 17 17 18 18 18 17 16 16 15 14
19 21 23 25 26 25 23 22 21 19 18 17 16 16 17 17 16 16 15 15 15 15 14 14 14 14 14 14 14 15 16 16 16 17 17 18 18 18 18 19 19 20 20 19 19 18 17 17 16
21 23 25 27 28 27 25 24 22 20 19 18 17 17 17 16 15 15 15 16 16 16 16 15 14 15 15 15 16 16 16 17 17 18 18 19 20 20 20 20 20 21 21 21 20 20 20 19 19
23 25 27 28 28 27 26 24 23 21 21 19 18 18 17 16 15 15 16 17 17 16 16 16 15 15 16 16 17 17 17 17 18 18 19 20 20 20 21 21 21 21 22 22 22 22 21 21 21
24 26 28 29 29 28 27 25 23 22 21 20 19 18 17 16 16 16 16 17 17 17 16 16 16 16 17 17 18 18 18 18 18 19 20 20 19 20 21 22 22 22 22 23 23 23 23 22 22
25 27 29 30 28 28 27 25 24 23 21 20 19 19 18 16 16 16 16 17 17 17 17 17 18 18 18 18 18 18 19 19 19 20 20 21 21 21 22 23 23 24 24 24 24 23 24 23 22
25 28 28 29 29 28 27 26 25 24 22 20 19 18 17 17 18 17 17 17 17 17 18 18 18 18 18 18 18 18 19 19 19 20 21 21 21 22 23 24 24 25 25 26 26 25 25 25 24
25 27 28 28 28 28 28 27 26 24 22 20 20 19 19 19 19 19 19 18 17 17 18 19 19 19 19 19 19 20 20 20 21 21 22 22 22 23 23 24 25 26 26 26 27 26 27 27 26
24 26 26 27 27 27 27 26 26 23 21 21 20 20 20 20 19 20 20 19 19 19 19 20 20 19 18 19 19 20 21 21 21 21 22 23 23 23 23 24 25 25 26 26 27 27 27 28 27
22 24 25 26 26 27 27 26 25 23 22 22 21 21 21 21 21 21 21 21 21 21 20 21 20 20 20 20 20 20 21 21 21 22 23 23 24 24 25 25 25 26 26 26 27 27 26 27 27
21 23 24 25 25 25 26 25 24 23 23 22 21 21 22 22 22 21 22 23 23 21 20 20 20 21 21 21 20 20 21 21 22 22 23 24 24 26 26 26 26 26 26 26 26 26 26 27 28
20 21 22 24 24 24 24 25 24 24 23 23 22 22 22 23 23 22 22 22 22 22 22 21 20 20 21 21 20 20 21 21 22 23 24 25 25 25 25 25 25 26 25 25 25 25 26 27 27
20 20 21 22 24 24 23 23 23 23 23 23 23 22 22 22 22 22 22 22 23 23 22 22 21 21 21 21 21 21 22 23 23 24 25 25 25 25 26 25 25 25 25 26 26 26 26 26 26
20 20 20 22 23 23 23 23 24 24 22 22 22 22 21 21 21 22 23 24 24 23 23 21 22 21 21 21 22 23 23 24 24 24 24 24 25 25 25 25 25 25 25 25 24 25 25 26 25
18 19 20 21 22 23 23 23 22 21 20 21 21 21 20 19 20 22 24 24 24 24 24 22 22 22 22 22 22 23 24 24 24 25 26 26 26 25 25 25 25 25 24 24 25 25 25 25 26
16 17 18 19 20 21 21 22 21 21 20 20 19 18 18 20 21 22 24 24 24 24 24 23 23 24 24 23 24 24 24 25 26 26 27 27 26 26 25 24 24 24 25 25 26 25 26 26 26
15 15 16 17 18 19 20 20 19 19 19 18 17 17 18 18 19 20 22 23 24 24 23 23 24 25 25 25 25 25 26 26 26 27 27 28 27 27 26 25 25 25 25 25 26 26 27 27 27
15 15 16 16 17 18 18 20 19 18 17 17 17 17 17 18 19 20 21 23 24 24 25 26 26 26 26 25 25 26 27 27 27 27 28 28 27 27 27 26 26 26 26 25 25 25 26 27 27
15 15 16 17 17 18 17 18 18 17 17 17 17 17 17 18 19 20 21 23 23 25 26 26 25 25 25 25 26 27 27 28 28 28 28 28 27 26 26 26 26 26 26 27 26 25 26 26 26
16 16 17 18 18 18 18 19 18 17 18 18 18 18 18 18 19 20 21 22 22 24 25 24 25 26 26 26 26 27 26 27 27 27 27 27 27 26 26 25 26 26 27 28 28 27 27 26 25
16 17 18 18 18 19 19 18 18 18 18 18 18 18 19 19 19 19 19 20 21 22 24 24 25 26 25 26 26 26 27 27 27 27 27 27 27 26 26 26 26 27 27 27 27 28 28 27 27
15 15 17 18 19 19 19 18 18 17 17 17 18 18 18 18 19 19 19 19 20 22 23 24 24 25 26 26 27 27 28 28 28 28 27 27 27 27 27 26 27 27 27 27 28 28 28 28 28
14 15 15 16 17 19 19 17 17 17 16 17 18 19 19 20 20 20 20 20 21 22 22 23 24 25 25 25 26 27 27 28 28 28 28 27 27 27 27 27 27 27 27 27 28 28 28 29 29
14 14 15 16 17 17 18 16 15 16 16 17 18 18 19 19 19 19 19 20 21 22 23 23 24 24 24 25 25 25 26 27 27 27 28 28 28 28 27 26 26 26 26 26 27 28 29 30 30
Wind_Direction
229 226 228 229 229 232 234 242 249 252 251 254 264 283 301 313 324 321 314 306 294 291 287 285 287 288 292 294 293 296 297 295 293 294 295 297 299 302 305 308 309 310 314 319 321 323 324 324 323
227 226 226 227 229 232 235 242 248 253 251 253 267 283 292 305 309 312 308 302 293 288 287 284 284 287 290 292 292 291 291 291 290 290 290 291 292 294 295 297 300 302 306 312 315 317 318 318 318
225 225 225 227 230 235 238 243 248 252 250 254 269 284 296 304 305 305 302 296 291 287 283 282 282 284 286 289 291 290 289 289 287 287 288 289 289 291 292 293 295 298 300 305 308 310 312 311 311
224 224 225 227 231 237 240 242 245 248 247 253 265 281 297 299 298 298 295 291 286 284 279 276 279 280 283 287 288 290 290 290 287 285 286 288 288 289 290 291 292 293 295 298 301 302 302 303 303
224 223 225 228 233 237 239 240 243 246 248 253 265 278 288 291 292 291 291 289 283 278 275 272 275 278 279 283 285 287 289 290 289 287 286 286 287 287 287 288 288 289 290 293 295 296 295 294 296
222 222 223 227 231 235 238 238 243 245 245 253 262 272 281 285 288 288 287 285 280 274 272 272 272 273 276 279 281 283 286 288 288 287 286 284 284 286 285 286 287 287 287 288 290 290 290 290 290
220 220 221 226 231 234 237 240 242 245 246 251 260 271 282 288 285 284 283 276 273 272 272 269 269 272 275 278 280 282 284 284 284 285 283 282 282 282 283 283 284 285 285 284 285 286 285 284 285
218 220 222 225 230 234 238 241 245 247 249 256 266 277 285 288 286 285 280 270 268 271 272 269 269 271 274 279 281 282 285 284 282 283 283 282 281 280 280 281 281 281 281 282 282 282 282 279 279
217 219 222 226 230 235 240 243 247 249 252 259 268 277 282 286 283 280 277 269 270 270 268 269 272 272 273 277 279 282 285 282 281 282 283 282 281 279 279 279 278 278 278 278 279 279 279 277 276
218 220 223 228 233 237 241 244 246 250 255 261 269 275 280 281 282 280 278 273 268 266 266 268 269 272 273 275 277 280 283 281 282 283 283 282 280 279 278 277 276 276 277 277 276 276 278 276 273
218 220 224 229 234 238 240 242 245 249 254 261 270 276 277 275 278 279 276 271 265 263 264 266 266 268 271 274 275 277 280 280 281 281 282 282 280 277 277 276 274 273 274 275 275 275 275 274 272
219 221 225 229 234 238 242 245 248 252 258 265 270 272 273 269 273 275 274 270 266 265 263 266 268 268 270 272 275 277 279 281 283 281 281 281 279 278 278 277 273 273 273 273 273 273 273 273 272
222 224 227 231 235 239 244 248 252 256 261 267 268 270 272 270 271 271 270 268 267 268 267 268 268 271 270 271 278 280 279 279 283 284 282 281 280 277 278 278 276 273 272 272 270 269 269 269 269
225 227 229 234 238 242 246 250 254 258 263 266 268 270 272 271 268 267 269 269 267 269 269 269 269 273 272 273 277 279 280 282 283 285 284 281 280 280 279 278 278 276 274 274 270 268 268 268 267
227 231 234 237 240 244 247 250 254 258 262 264 267 268 269 266 266 268 267 265 266 268 270 271 272 275 276 278 280 283 284 284 282 282 283 281 279 280 280 279 279 278 275 272 271 268 266 266 267
228 232 236 239 243 247 250 252 255 259 262 264 265 265 266 266 266 267 268 266 266 269 271 273 274 277 278 279 280 282 283 283 283 283 283 282 279 279 281 280 278 277 275 273 269 267 266 265 265
230 233 237 242 246 250 253 256 259 260 261 264 264 265 265 265 265 267 270 267 267 268 269 272 274 277 277 278 279 281 282 282 283 283 284 283 281 281 280 279 278 276 275 273 269 265 264 264 263
233 236 240 244 247 251 255 258 260 264 264 266 268 268 268 265 265 267 269 269 268 268 269 271 273 276 276 276 277 280 281 281 282 284 285 284 281 281 280 278 278 275 272 272 269 268 265 263 260
236 238 241 245 249 252 256 259 261 265 269 270 270 270 270 264 263 266 270 269 268 270 270 267 270 273 276 278 279 281 282 282 282 283 284 283 281 281 278 277 275 274 271 270 267 265 265 261 258
238 242 244 248 251 254 256 260 264 268 270 271 274 272 271 263 265 265 270 269 270 270 270 269 270 274 277 278 279 280 283 283 283 284 283 283 284 283 281 276 274 273 270 268 265 263 263 260 257
242 246 247 250 253 256 259 262 266 269 271 273 274 271 270 269 270 272 269 269 271 273 271 270 271 274 276 278 280 282 282 283 284 284 283 283 284 283 280 277 273 270 269 267 264 263 262 260 258
244 249 251 252 255 258 262 265 266 270 274 274 274 271 273 274 276 276 273 270 271 273 273 272 273 274 274 276 279 281 282 283 285 285 284 285 284 283 280 275 274 273 270 268 265 263 262 260 258
247 252 254 256 260 262 264 265 265 269 274 276 277 275 276 278 279 280 276 273 272 270 273 275 275 274 274 275 277 280 281 282 283 284 284 285 283 280 279 276 274 271 270 268 265 262 260 260 258
251 255 257 259 263 265 267 270 269 272 277 278 280 279 278 279 279 279 276 272 272 271 276 276 277 276 273 275 277 279 281 281 282 282 283 284 282 278 277 276 275 273 271 270 267 263 261 259 258
254 258 262 264 267 270 272 275 278 279 280 281 281 282 284 282 280 279 277 275 272 273 278 277 278 279 277 277 279 280 281 282 281 281 282 283 281 279 277 275 272 272 270 268 265 264 262 260 257
259 262 265 269 271 272 275 278 282 282 283 284 283 283 284 282 282 283 279 277 274 275 277 278 278 279 279 278 278 279 281 282 282 281 281 281 279 278 277 274 272 271 269 266 264 263 262 261 259
261 264 268 271 274 276 278 280 281 282 287 287 287 286 285 282 285 286 280 276 275 277 277 277 277 277 279 280 280 279 279 280 281 281 281 280 277 276 276 275 273 273 271 267 264 263 262 261 259
261 268 270 271 275 278 280 282 285 285 285 285 288 289 287 286 287 286 284 281 277 277 277 278 278 280 282 282 282 281 280 280 280 280 280 279 277 276 275 274 273 271 270 265 263 263 263 262 261
263 268 269 270 275 279 282 284 287 288 285 289 292 291 291 288 286 286 286 284 283 285 283 281 279 280 281 282 282 281 281 279 279 280 278 278 277 276 274 274 272 270 269 265 265 265 265 263 261
263 263 264 267 274 278 282 285 288 289 290 293 296 297 295 290 291 288 287 286 286 287 286 284 282 280 281 282 282 282 281 280 280 279 277 276 276 275 274 274 273 271 271 268 265 264 264 263 261
Height
5884 5885 5886 5888 5889 5890 5890 5891 5893 5894 5896 5898 5899 5900 5900 5901 5903 5905 5904 5902 5903 5903 5903 5903 5902 5902 5902 5901 5901 5901 5901 5901 5902 5902 5903 5903 5903 5904 5904 5904 5904 5904 5904 5904 5904 5904 5903 5903 5902
5882 5883 5885 5886 5887 5888 5889 5890 5892 5894 5895 5896 5897 5898 5899 5899 5900 5901 5900 5901 5901 5901 5902 5902 5901 5901 5900 5900 5900 5900 5900 5900 5901 5901 5901 5902 5902 5902 5902 5903 5903 5903 5903 5903 5903 5903 5902 5902 5902
5880 5882 5883 5884 5885 5886 5887 5889 5890 5892 5894 5895 5896 5896 5897 5897 5898 5898 5899 5899 5899 5900 5900 5900 5899 5899 5898 5898 5898 5898 5898 5899 5899 5899 5900 5900 5900 5900 5901 5901 5901 5901 5902 5902 5902 5901 5901 5901 5901
5879 5880 5881 5883 5883 5884 5885 5887 5889 5890 5892 5893 5894 5895 5895 5896 5896 5897 5897 5897 5897 5898 5898 5898 5898 5897 5897 5897 5897 5897 5897 5897 5897 5897 5897 5898 5898 5898 5898 5899 5899 5899 5900 5900 5900 5900 5900 5899 5899
5876 5878 5879 5880 5880 5882 5883 5886 5888 5889 5890 5891 5892 5893 5893 5894 5894 5894 5895 5895 5895 5896 5896 5896 5896 5895 5895 5895 5895 5895 5895 5895 5895 5895 5895 5896 5896 5896 5896 5896 5896 5897 5897 5898 5898 5898 5898 5898 5897
5874 5875 5877 5877 5878 5880 5882 5884 5886 5887 5888 5890 5891 5891 5891 5892 5892 5892 5892 5893 5893 5893 5893 5893 5894 5893 5893 5893 5893 5893 5893 5893 5893 5893 5893 5893 5893 5893 5894 5894 5894 5894 5894 5895 5895 5895 5895 5895 5895
5872 5873 5874 5875 5876 5877 5880 5882 5884 5885 5886 5888 5889 5889 5889 5890 5890 5890 5890 5890 5891 5891 5891 5891 5891 5891 5891 5891 5891 5891 5890 5890 5890 5890 5890 5890 5890 5890 5890 5891 5891 5891 5891 5891 5892 5892 5892 5893 5893
5868 5871 5871 5872 5873 5875 5878 5880 5881 5883 5885 5886 5887 5887 5887 5887 5887 5887 5888 5888 5888 5888 5888 5888 5888 5888 5888 5888 5888 5888 5888 5888 5887 5887 5887 5887 5887 5887 5887 5887 5887 5887 5887 5888 5888 5888 5888 5889 5889
5866 5868 5868 5869 5871 5873 5876 5878 5880 5881 5882 5883 5884 5884 5884 5884 5884 5885 5885 5885 5885 5885 5885 5885 5885 5885 5885 5885 5885 5885 5884 5884 5884 5884 5884 5884 5884 5883 5883 5883 5883 5884 5884 5884 5884 5884 5885 5885 5886
5862 5864 5865 5867 5869 5871 5873 5875 5877 5878 5879 5880 5880 5881 5881 5881 5882 5882 5882 5882 5882 5882 5882 5882 5882 5882 5882 5882 5882 5881 5881 5881 5881 5880 5880 5879 5879 5879 5879 5879 5879 5879 5880 5880 5880 5880 5881 5881 5881
5859 5861 5862 5864 5866 5868 5870 5872 5873 5875 5876 5877 5878 5878 5878 5878 5879 5879 5879 5879 5879 5878 5879 5879 5879 5879 5879 5879 5878 5878 5877 5877 5877 5877 5876 5875 5874 5874 5875 5875 5875 5875 5875 5875 5875 5876 5876 5876 5877
5856 5858 5859 5861 5863 5866 5867 5869 5870 5872 5873 5874 5874 5875 5874 5875 5875 5875 5875 5875 5875 5875 5875 5875 5875 5874 5875 5874 5874 5874 5873 5873 5872 5872 5872 5871 5871 5870 5870 5870 5870 5870 5870 5871 5871 5871 5872 5872 5872
5853 5855 5857 5859 5861 5863 5865 5866 5868 5868 5870 5870 5871 5872 5870 5870 5872 5872 5872 5872 5871 5871 5871 5871 5871 5871 5871 5870 5870 5869 5868 5868 5868 5867 5867 5867 5866 5866 5865 5865 5865 5865 5865 5865 5866 5866 5866 5867 5867
5850 5852 5855 5857 5858 5860 5862 5863 5864 5865 5866 5867 5868 5869 5869 5868 5868 5869 5868 5868 5867 5867 5867 5867 5867 5866 5866 5866 5865 5865 5864 5864 5863 5863 5862 5862 5861 5861 5860 5860 5860 5860 5860 5860 5860 5860 5861 5861 5861
5848 5850 5852 5854 5855 5857 5859 5861 5861 5862 5863 5864 5864 5865 5865 5864 5865 5865 5865 5864 5864 5863 5864 5864 5863 5862 5862 5862 5861 5860 5860 5859 5859 5858 5857 5857 5856 5856 5855 5855 5854 5854 5854 5854 5854 5854 5854 5855 5855
5846 5848 5850 5851 5852 5854 5857 5857 5858 5858 5859 5859 5860 5860 5860 5861 5861 5861 5860 5860 5860 5859 5860 5859 5859 5858 5857 5857 5857 5856 5855 5854 5854 5853 5852 5851 5851 5850 5849 5849 5849 5848 5848 5847 5848 5848 5848 5849 5849
5843 5845 5846 5848 5849 5850 5852 5853 5854 5854 5855 5855 5855 5856 5856 5856 5857 5857 5856 5856 5855 5855 5855 5855 5855 5854 5853 5852 5852 5851 5850 5849 5849 5848 5847 5846 5845 5845 5844 5843 5842 5842 5842 5842 5842 5842 5842 5843 5843
5840 5842 5844 5845 5846 5847 5848 5849 5850 5850 5851 5852 5852 5852 5852 5852 5852 5852 5851 5851 5851 5851 5851 5851 5850 5849 5848 5847 5847 5846 5845 5844 5843 5843 5841 5841 5840 5839 5838 5837 5836 5835 5835 5835 5835 5835 5836 5837 5837
5838 5839 5841 5842 5843 5844 5844 5845 5846 5846 5847 5847 5848 5848 5848 5848 5847 5847 5847 5847 5847 5846 5845 5845 5845 5844 5843 5842 5841 5841 5840 5839 5838 5837 5836 5834 5834 5832 5831 5831 5830 5829 5829 5829 5829 5829 5829 5830 5831
5835 5837 5838 5839 5840 5841 5841 5842 5842 5843 5843 5843 5843 5843 5842 5842 5842 5842 5841 5841 5841 5841 5840 5839 5839 5838 5838 5837 5836 5836 5834 5833 5832 5831 5830 5828 5827 5826 5825 5824 5823 5823 5822 5822 5822 5822 5823 5823 5824
5833 5835 5836 5836 5836 5837 5838 5839 5839 5839 5839 5839 5839 5838 5837 5837 5837 5837 5837 5836 5835 5835 5834 5834 5834 5833 5833 5832 5831 5830 5829 5828 5826 5825 5824 5822 5821 5819 5818 5817 5816 5816 5816 5816 5816 5816 5816 5816 5817
5831 5832 5833 5833 5833 5834 5835 5835 5836 5835 5836 5835 5834 5834 5833 5833 5832 5832 5831 5830 5829 5830 5829 5829 5828 5828 5827 5826 5825 5824 5823 5821 5820 5819 5817 5816 5814 5812 5811 5810 5810 5809 5809 5809 5809 5809 5809 5810 5810
5828 5829 5829 5830 5830 5831 5831 5831 5833 5832 5832 5832 5830 5829 5829 5828 5827 5826 5825 5824 5823 5823 5823 5823 5822 5822 5820 5819 5818 5818 5816 5815 5813 5812 5811 5809 5807 5806 5805 5804 5803 5803 5803 5802 5802 5803 5803 5803 5804
5826 5826 5827 5827 5827 5828 5828 5828 5829 5828 5828 5828 5826 5825 5824 5823 5822 5821 5820 5819 5818 5817 5818 5818 5817 5816 5814 5813 5812 5811 5810 5808 5806 5805 5804 5803 5801 5800 5798 5797 5797 5796 5796 5796 5796 5796 5796 5797 5798
5824 5824 5824 5824 5824 5825 5825 5824 5825 5824 5824 5823 5822 5821 5819 5818 5817 5815 5814 5814 5813 5812 5812 5811 5810 5809 5808 5807 5806 5805 5803 5802 5800 5799 5797 5796 5794 5793 5792 5791 5790 5790 5789 5789 5789 5789 5789 5790 5791
5821 5822 5822 5822 5821 5821 5821 5820 5822 5821 5819 5818 5817 5816 5815 5814 5812 5810 5809 5808 5807 5807 5806 5805 5804 5803 5802 5801 5799 5798 5797 5795 5793 5791 5790 5788 5787 5786 5785 5784 5783 5783 5782 5782 5782 5782 5783 5783 5784
5817 5817 5818 5818 5817 5817 5817 5817 5817 5816 5815 5814 5813 5811 5810 5809 5807 5806 5804 5803 5801 5800 5800 5799 5797 5796 5795 5794 5793 5791 5790 5788 5786 5784 5782 5781 5780 5779 5778 5777 5776 5776 5775 5775 5775 5775 5775 5776 5777
5814 5814 5814 5814 5813 5813 5813 5813 5813 5812 5811 5809 5808 5807 5806 5805 5803 5801 5799 5797 5796 5795 5794 5792 5791 5790 5788 5787 5785 5784 5782 5780 5778 5777 5775 5774 5773 5772 5771 5770 5769 5768 5768 5768 5768 5768 5768 5769 5769
5810 5811 5810 5810 5810 5809 5808 5811 5809 5807 5806 5805 5804 5803 5801 5800 5798 5796 5794 5792 5790 5789 5787 5785 5784 5782 5781 5779 5777 5776 5774 5772 5771 5769 5768 5766 5765 5764 5763 5762 5761 5761 5760 5760 5760 5760 5760 5761 5762
5806 5807 5807 5807 5806 5806 5805 5808 5804 5803 5802 5801 5800 5798 5796 5795 5793 5791 5789 5787 5784 5783 5781 5779 5777 5775 5774 5772 5770 5768 5766 5765 5763 5761 5760 5758 5757 5756 5755 5755 5754 5753 5753 5753 5753 5753 5753 5753 5754